Stations météo

Publicité
Großer Arber, Allemagne (10791): Température de l'air & dewpoint: 15.06.2018 18:00:00 - 21.06.2018 18:00:00 (CEST)Großer Arber, Allemagne (10791): Vitesse du vent & gusts: 15.06.2018 18:00:00 - 21.06.2018 18:00:00 (CEST)Großer Arber, Allemagne (10791): Direction du vent: 15.06.2018 18:00:00 - 21.06.2018 18:00:00 (CEST)Großer Arber, Allemagne (10791): visibility: 15.06.2018 18:00:00 - 21.06.2018 18:00:00 (CEST)Großer Arber, Allemagne (10791): Ensoleillement: 15.06.2018 18:00:00 - 21.06.2018 18:00:00 (CEST)Großer Arber, Allemagne (10791): Quantités de précipitations: 15.06.2018 18:00:00 - 21.06.2018 18:00:00 (CEST)
Date & Time tt [°C] td [°C] ff [km/h] ff [knt] fx [km/h] fx [knt] dd vv [km] sd [min] rr [mm]
21.06.2018 18:00:00 - - - - - - - - - -
21.06.2018 17:00:00 17,7 6,6 42 23 65 35 W 11 46 0,0
21.06.2018 16:00:00 17,8 10,5 43 23 69 37 W 11 23 0,0
21.06.2018 15:00:00 18,5 11,4 36 20 59 32 WSW 10 28 0,0
21.06.2018 14:00:00 18,7 12,3 32 18 57 31 SSW 11 40 0,0
21.06.2018 13:00:00 17,3 11,9 32 18 48 26 SW 11 35 0,0
21.06.2018 12:00:00 17,7 12,1 22 12 46 25 SSW 11 43 0,0
21.06.2018 11:00:00 17,7 12,5 14 8 28 15 S 11 59 0,0
21.06.2018 10:00:00 16,9 11,4 21 12 28 15 SW 11 60 0,0
21.06.2018 09:00:00 16,1 10,7 18 10 23 13 SW 11 60 0,0
21.06.2018 08:00:00 15,8 10,7 14 8 19 11 SW 11 60 0,0
21.06.2018 07:00:00 14,9 9,7 13 7 18 10 WSW 11 21 0,0
21.06.2018 06:00:00 13,9 9,2 12 6 14 7 WSW 11 11 0,0
21.06.2018 05:00:00 14,0 9,1 10 5 11 6 WSW 11 0 0,0
21.06.2018 04:00:00 14,4 9,1 10 5 11 6 SW 10 0 0,0
21.06.2018 03:00:00 14,8 9,0 7 4 9 5 SSW 11 0 0,0
21.06.2018 02:00:00 14,6 9,5 9 5 10 6 SW 11 0 0,0
21.06.2018 01:00:00 14,4 10,0 10 5 13 7 SSW 11 0 0,0
21.06.2018 00:00:00 14,9 9,9 10 5 13 7 SSW 10 0 0,0
20.06.2018 23:00:00 14,8 10,7 4 2 4 2 SSW 11 0 0,0
20.06.2018 22:00:00 15,2 10,3 0 0 6 3 N 11 12 0,0
20.06.2018 21:00:00 16,1 10,4 4 2 8 4 SW 11 56 0,0
20.06.2018 20:00:00 17,3 9,9 4 2 9 5 N 11 60 0,0
20.06.2018 19:00:00 17,3 10,4 6 3 13 7 E 11 42 0,0
20.06.2018 18:00:00 17,7 10,2 8 4 15 8 S 11 47 0,0
20.06.2018 17:00:00 17,0 11,6 10 6 27 15 SSE 11 17 0,0
20.06.2018 16:00:00 17,0 11,8 9 5 16 9 S 11 8 0,0
20.06.2018 15:00:00 16,9 10,8 6 4 18 10 SSW 11 20 0,0
20.06.2018 14:00:00 16,3 10,6 13 7 21 12 S 10 9 0,0
20.06.2018 13:00:00 14,8 10,3 9 5 19 10 S 11 11 0,0
20.06.2018 12:00:00 14,9 9,7 9 5 23 12 SSE 11 27 0,0
20.06.2018 11:00:00 15,1 9,4 10 5 21 12 SE 11 12 0,0
20.06.2018 10:00:00 14,3 9,9 15 8 27 15 SE 11 47 0,0
20.06.2018 09:00:00 15,1 10,1 13 7 21 11 SE 11 54 0,0
20.06.2018 08:00:00 13,2 9,4 9 5 11 6 SE 11 7 0,0
20.06.2018 07:00:00 13,0 7,1 6 3 7 4 ESE 11 0 0,0
20.06.2018 06:00:00 12,6 6,9 5 3 8 4 E 11 0 0,0
20.06.2018 05:00:00 12,4 8,0 6 3 8 4 E 10 0 0,0
20.06.2018 04:00:00 12,0 9,5 7 4 11 6 ENE 11 0 0,0
20.06.2018 03:00:00 12,1 9,9 7 4 10 6 ENE 11 0 0,0
20.06.2018 02:00:00 11,9 9,4 7 4 11 6 NNE 11 0 0,0
20.06.2018 01:00:00 12,0 10,2 9 5 12 7 NE 11 0 0,0
20.06.2018 00:00:00 12,0 9,8 9 5 14 8 N 11 0 0,0
19.06.2018 23:00:00 12,2 10,6 11 6 16 8 NNW 11 0 0,0
19.06.2018 22:00:00 12,1 10,7 12 7 20 11 NW 10 0 0,0
19.06.2018 21:00:00 12,4 10,7 15 8 21 12 NW 10 0 0,0
19.06.2018 20:00:00 12,8 10,6 13 7 19 10 WNW 11 0 0,0
19.06.2018 19:00:00 13,0 10,5 13 7 22 12 W 10 0 0,0
19.06.2018 18:00:00 13,2 10,8 11 6 23 12 W 11 0 0,0
19.06.2018 17:00:00 13,3 10,7 14 8 27 14 W 10 1 0,0
19.06.2018 16:00:00 11,8 10,1 14 8 24 13 WSW 11 3 0,0
19.06.2018 15:00:00 11,5 9,9 11 6 22 12 WSW 10 0 0,0
19.06.2018 14:00:00 12,0 9,7 16 9 30 16 W 10 0 0,0
19.06.2018 13:00:00 11,7 8,2 16 9 30 16 W 11 1 0,0
19.06.2018 12:00:00 11,2 8,8 20 11 32 18 W 11 0 0,0
19.06.2018 11:00:00 11,5 9,1 21 11 38 21 W 10 1 0,0
19.06.2018 10:00:00 11,5 8,6 20 11 30 16 W 11 5 0,0
19.06.2018 09:00:00 11,7 8,6 16 9 32 17 NW 11 56 0,0
19.06.2018 08:00:00 10,4 7,9 15 8 32 17 NW 11 53 0,0
19.06.2018 07:00:00 9,4 7,6 21 11 29 16 WNW 10 21 0,0
19.06.2018 06:00:00 9,0 7,6 20 11 36 19 WNW 11 0 0,0
19.06.2018 05:00:00 10,0 7,2 30 16 41 22 W 11 0 0,0
19.06.2018 04:00:00 9,5 7,3 17 9 25 13 WNW 11 0 0,0
19.06.2018 03:00:00 9,4 7,0 16 9 19 10 WNW 11 0 0,0
19.06.2018 02:00:00 9,6 7,2 15 8 25 14 WNW 11 0 0,0
19.06.2018 01:00:00 10,1 7,0 16 9 24 13 WNW 11 0 0,0
19.06.2018 00:00:00 10,3 6,9 14 8 21 12 WNW 11 0 0,0
18.06.2018 23:00:00 11,0 7,0 16 9 26 14 WNW 11 0 0,0
18.06.2018 22:00:00 11,2 7,7 17 9 26 14 WNW 11 0 0,0
18.06.2018 21:00:00 11,2 7,5 20 11 27 15 W 10 7 0,0
18.06.2018 20:00:00 12,0 7,9 14 8 22 12 W 10 0 0,0
18.06.2018 19:00:00 12,2 7,9 16 8 24 13 W 11 0 0,0
18.06.2018 18:00:00 12,2 8,0 12 7 27 15 W 10 0 0,0
18.06.2018 17:00:00 12,7 7,6 12 7 30 16 WNW 11 2 0,0
18.06.2018 16:00:00 13,9 7,6 19 11 34 18 WNW 11 24 0,0
18.06.2018 15:00:00 13,1 7,5 16 8 34 18 W 11 38 0,0
18.06.2018 14:00:00 14,0 6,1 18 10 34 18 W 10 57 0,0
18.06.2018 13:00:00 13,8 7,4 18 10 35 19 W 11 50 0,0
18.06.2018 12:00:00 12,5 7,5 16 8 28 15 W 11 38 0,0
18.06.2018 11:00:00 10,6 6,6 20 11 36 19 W 11 44 0,0
18.06.2018 10:00:00 11,0 8,1 15 8 30 16 W 10 34 0,0
18.06.2018 09:00:00 9,8 8,1 12 6 23 13 WNW 11 33 0,0
18.06.2018 08:00:00 9,7 7,0 18 10 34 18 WNW 10 52 0,0
18.06.2018 07:00:00 8,8 5,9 19 11 28 15 WNW 11 0 0,0
18.06.2018 06:00:00 8,7 5,9 19 10 25 14 WNW 11 9 0,0
18.06.2018 05:00:00 8,3 5,5 18 10 28 15 NW 10 0 0,0
18.06.2018 04:00:00 8,7 5,8 18 10 29 16 NW 10 0 0,0
18.06.2018 03:00:00 9,2 6,3 15 8 26 14 NW 11 0 0,0
18.06.2018 02:00:00 9,3 6,2 22 12 31 17 NNW 11 0 0,0
18.06.2018 01:00:00 9,1 6,6 24 13 33 18 NNW 11 0 0,0
18.06.2018 00:00:00 9,3 8,2 26 14 34 19 NNW 11 0 0,0
17.06.2018 23:00:00 9,9 9,0 28 15 35 19 NNW 11 0 0,0
17.06.2018 22:00:00 10,2 8,9 29 16 42 23 NNW 10 0 0,0
17.06.2018 21:00:00 10,7 9,2 29 16 36 20 NNW 11 33 0,0
17.06.2018 20:00:00 11,0 9,4 25 14 33 18 NNW 11 0 0,0
17.06.2018 19:00:00 11,8 9,7 25 14 38 21 NW 11 7 0,0
17.06.2018 18:00:00 12,5 10,9 18 10 35 19 WNW 11 0 0,0
17.06.2018 17:00:00 13,0 9,4 16 8 25 14 WNW 11 2 0,0
17.06.2018 16:00:00 11,8 10,3 16 9 30 16 N 10 0 1,0
17.06.2018 15:00:00 17,3 9,4 20 11 29 16 SW 10 39 0,0
17.06.2018 14:00:00 17,2 8,8 16 9 31 17 SW 11 35 0,0
17.06.2018 13:00:00 14,4 7,9 14 8 25 14 W 11 14 0,0
17.06.2018 12:00:00 16,1 7,9 10 5 23 12 W 11 40 0,0
17.06.2018 11:00:00 14,2 8,2 13 7 24 13 W 11 26 0,0
17.06.2018 10:00:00 14,9 6,6 12 7 18 10 WSW 10 59 0,0
17.06.2018 09:00:00 14,1 5,5 13 7 22 12 W 11 60 0,0
17.06.2018 08:00:00 13,3 6,4 12 7 20 11 W 11 53 0,0
17.06.2018 07:00:00 12,0 6,3 17 9 20 11 WSW 10 22 0,0
17.06.2018 06:00:00 10,9 7,0 14 7 19 10 SW 10 0 0,0
17.06.2018 05:00:00 11,4 6,1 17 9 20 11 SSW 11 0 0,0
17.06.2018 04:00:00 11,8 5,7 14 7 19 11 SSW 11 0 0,0
17.06.2018 03:00:00 11,9 5,8 16 9 21 11 SSW 11 0 0,0
17.06.2018 02:00:00 11,8 6,3 16 9 19 11 S 11 0 0,0
17.06.2018 01:00:00 11,8 7,1 14 8 20 11 S 10 0 0,0
17.06.2018 00:00:00 11,7 7,6 14 8 20 11 S 11 0 0,0
16.06.2018 23:00:00 12,1 6,8 10 5 13 7 SE 10 0 0,0
16.06.2018 22:00:00 13,1 5,8 7 4 11 6 E 11 0 0,0
16.06.2018 21:00:00 13,1 5,6 8 4 11 6 E 11 3 0,0
16.06.2018 20:00:00 13,4 5,8 7 4 9 5 E 10 16 0,0
16.06.2018 19:00:00 14,0 5,8 6 3 14 7 ENE 11 5 0,0
16.06.2018 18:00:00 15,9 6,4 10 5 16 8 NNE 11 31 0,0
16.06.2018 17:00:00 14,0 6,6 6 4 21 11 N 11 7 0,0
16.06.2018 16:00:00 16,6 8,6 8 5 14 8 NW 10 12 0,0
16.06.2018 15:00:00 15,2 6,2 10 5 15 8 WNW 11 20 0,0
16.06.2018 14:00:00 14,3 7,5 6 3 22 12 NW 11 29 0,0
16.06.2018 13:00:00 13,9 6,3 8 4 11 6 ENE 11 18 0,0
16.06.2018 12:00:00 13,0 5,7 6 3 20 11 N 11 17 0,0
16.06.2018 11:00:00 12,3 5,8 5 3 16 8 E 11 2 0,0
16.06.2018 10:00:00 12,6 5,2 12 7 21 11 SE 11 46 0,0
16.06.2018 09:00:00 12,0 5,6 13 7 21 12 ESE 10 60 0,0
16.06.2018 08:00:00 11,0 6,5 12 6 19 11 E 10 60 0,0
16.06.2018 07:00:00 10,2 6,4 12 6 17 9 E 11 22 0,0
16.06.2018 06:00:00 8,9 6,1 12 7 18 10 E 11 17 0,0
16.06.2018 05:00:00 8,7 5,4 13 7 22 12 E 11 0 0,0
16.06.2018 04:00:00 8,9 5,6 14 7 23 12 E 11 0 0,0
16.06.2018 03:00:00 9,0 5,3 13 7 21 11 E 11 0 0,0
16.06.2018 02:00:00 9,2 5,3 13 7 21 11 E 11 0 0,0
16.06.2018 01:00:00 9,8 5,0 14 8 24 13 E 11 0 0,0
16.06.2018 00:00:00 9,5 5,1 16 9 23 13 E 11 0 0,0
15.06.2018 23:00:00 10,2 5,2 15 8 21 12 E 11 0 0,0
15.06.2018 22:00:00 10,0 6,0 12 7 21 11 NE 10 0 0,0
15.06.2018 21:00:00 10,5 5,7 12 6 22 12 NNE 11 19 0,0
15.06.2018 20:00:00 11,0 5,7 14 8 21 12 NNE 11 8 0,0
15.06.2018 19:00:00 13,1 6,0 13 7 18 10 N 11 19 0,0
15.06.2018 18:00:00 12,1 4,9 9 5 19 10 NE 10 25 0,0

tt = Température de l'air
td = dewpoint
ff = Vitesse du vent
fx = gusts
dd = Direction du vent
vv = visibility
sd = Ensoleillement
rr = Quantités de précipitations

stations d'obs. à proximité